Location: Agus-us
(14.2247°N, 120.8593°E)
Time: 17:51:27
(UTC+00:00)

Cosmos 858 Rocket - Pass Details

Date: 13 December 2025
Orbit: 752 x 770 km, 74.1° (Epoch: 20 January)

Event Time Altitude Azimuth Distance (km) Brightness Sun altitude
Exits shadow 21:18:22 - 345° (NNW) 3,039 7.3 -12.9°
Reaches altitude 10° 21:20:19 10° 344° (NNW) 2,280 6.6 -12.5°
Maximum altitude 21:25:29 81° 258° (WSW) 772 4.4 -11.3°
Drops below altitude 10° 21:30:41 10° 171° (S) 2,290 7.4 -10.1°
Sets 21:33:03 0° 170° (S) 3,218 8.2 -9.6°
